Theta_e
306 305 305 307 305 305 308 308 307 307 308 308 308 308 308 308 304 306 309 310 309 305 297 300 302 303 303 303 302 301 303 304 305 307 307 306 304 305 305 312 309 315 317 317 317
303 302 301 301 302 302 306 308 306 304 308 308 308 308 308 308 306 307 308 310 306 303 300 300 300 302 301 304 303 302 301 302 303 303 302 303 303 303 304 304 306 307 312 311 312
301 300 300 301 301 301 305 307 305 304 307 307 307 308 308 305 305 307 305 303 302 302 301 301 302 303 303 303 303 303 303 302 302 303 303 303 303 303 303 305 309 305 307 308 313
300 300 300 300 299 299 299 303 305 304 302 306 307 307 306 306 297 305 304 304 303 300 301 301 301 302 302 302 303 303 301 301 302 303 301 302 302 302 302 303 302 303 304 308 312
300 300 299 299 298 298 298 300 301 301 300 307 306 307 303 302 302 304 304 303 302 303 301 301 301 302 303 302 302 302 301 301 301 301 300 300 301 301 302 301 302 302 304 304 306
300 299 298 298 298 297 298 299 302 300 302 307 306 306 305 300 303 304 304 301 301 302 301 301 300 301 301 302 302 301 302 302 302 301 301 301 300 300 301 301 301 302 302 303 305
300 299 298 298 297 297 299 299 299 299 302 302 304 305 304 300 303 304 301 300 300 300 301 301 301 301 301 302 301 303 303 302 301 300 299 300 301 301 300 300 301 300 301 303 304
299 298 298 297 297 297 299 299 299 301 300 301 305 306 302 302 303 302 300 299 300 300 300 300 300 300 301 301 303 303 302 303 300 299 299 300 299 298 298 298 299 300 298 300 303
299 298 297 297 297 299 298 297 299 301 299 301 305 305 301 301 299 299 299 299 300 300 300 300 300 300 301 302 303 303 302 302 302 301 301 301 301 300 300 300 300 300 299 299 302
298 298 297 297 298 300 298 297 298 302 298 302 303 299 299 297 299 299 299 299 299 299 298 301 300 301 302 303 301 302 303 302 302 301 301 301 302 301 301 300 298 298 298 297 298
298 298 297 297 298 300 297 296 295 294 296 297 296 298 297 300 299 299 298 299 298 298 297 297 300 300 300 302 303 304 305 305 303 303 303 303 302 301 301 299 298 299 296 296 297
298 298 297 297 300 300 297 298 298 296 298 296 298 298 299 300 299 297 299 298 297 298 297 298 299 299 300 301 302 303 303 303 302 301 302 302 301 301 301 300 299 299 299 296 297
298 298 297 297 299 300 299 299 300 299 297 297 299 300 298 297 297 297 297 297 297 297 298 298 298 299 299 301 302 302 302 302 302 302 301 302 303 302 301 301 301 301 300 298 296
298 298 298 297 298 300 299 297 300 298 293 296 296 298 295 295 296 297 298 297 298 298 298 298 298 298 299 300 301 301 301 302 302 303 303 301 302 299 299 299 300 300 300 299 296
299 297 299 298 299 299 296 296 299 297 293 296 296 296 294 297 296 297 296 295 296 297 295 298 297 297 297 300 302 301 301 302 302 303 304 303 304 300 299 300 299 300 300 299 297
299 297 298 298 297 297 296 298 298 294 293 295 294 295 296 296 297 295 295 295 296 297 298 297 296 297 299 301 300 300 301 302 303 304 303 302 303 301 299 301 300 299 298 298 296
299 297 299 300 298 295 298 295 295 294 293 294 296 295 296 297 296 295 295 295 296 292 296 295 296 298 299 299 300 301 300 295 296 297 300 301 304 303 302 303 303 303 301 297 297
298 297 300 301 296 296 295 293 291 284 285 293 296 295 295 295 295 295 295 295 295 295 295 293 295 296 297 299 301 302 304 302 304 300 302 303 306 307 299 296 297 298 301 299 296
298 299 300 297 296 298 292 290 289 285 293 295 295 290 289 293 294 294 294 294 295 295 296 295 295 296 297 300 301 299 302 298 300 301 304 307 306 306 295 293 294 298 303 297 296
298 299 300 295 297 292 291 293 286 292 295 293 292 291 288 290 293 293 294 294 295 295 296 296 296 296 298 297 300 298 297 296 299 299 301 305 305 296 292 290 291 307 303 296 296
299 293 298 295 294 290 289 280 287 292 294 293 289 292 291 293 294 293 295 295 294 296 296 296 296 297 297 294 296 296 293 294 296 297 303 305 302 294 290 289 299 308 304 297 298
295 293 297 295 292 275 284 281 293 293 295 296 294 294 289 289 289 293 295 295 295 295 296 297 296 295 297 296 296 294 292 293 294 300 297 302 301 291 287 288 302 306 306 304 304
290 291 296 292 290 283 283 291 293 294 295 295 296 295 287 288 291 289 294 295 295 296 296 297 296 295 295 298 294 294 291 291 295 296 295 293 293 289 285 286 293 300 301 300 300
291 294 290 288 286 289 287 286 289 293 294 295 296 294 288 283 289 289 295 295 295 295 298 296 297 296 297 294 293 292 292 290 290 286 291 291 288 287 284 283 286 294 296 296 296
288 287 282 288 287 292 291 291 293 290 294 294 293 289 289 286 283 284 292 294 295 296 294 296 293 296 293 294 294 292 292 290 287 287 288 288 288 286 283 282 284 288 290 290 291
291 290 283 281 289 294 294 291 295 294 293 292 288 287 286 287 288 289 293 294 294 293 294 295 290 290 292 296 295 295 293 291 288 286 287 289 289 285 282 281 281 283 285 286 287
293 292 291 290 291 288 291 293 293 293 292 293 293 291 286 288 289 289 291 293 293 293 294 295 296 288 289 294 298 295 293 291 289 286 285 284 284 284 282 279 278 279 280 280 283
Wind_Speed
8 9 10 11 12 12 13 14 16 17 16 16 17 18 19 20 21 5 3 2 3 9 11 10 7 13 4 1 0 3 1 3 4 3 5 8 8 5 6 5 5 5 1 5 23
9 10 11 12 13 14 14 16 17 18 16 18 18 18 18 20 14 3 2 1 5 9 7 6 6 9 4 2 2 3 2 5 4 4 7 9 8 10 5 9 5 11 5 17 17
10 11 12 14 16 17 18 18 19 19 17 19 18 17 16 15 2 1 1 5 9 7 8 7 5 3 2 1 2 3 6 4 6 8 3 5 9 4 6 8 3 6 10 9 4
11 12 14 16 18 20 21 21 20 18 19 19 18 14 14 4 2 1 4 9 10 7 6 5 4 4 2 3 2 4 6 6 6 5 4 6 4 9 9 11 8 11 8 5 6
12 14 16 18 20 21 23 21 21 20 19 15 12 9 5 5 4 3 7 11 11 8 5 1 3 1 2 4 5 9 11 9 7 12 8 10 13 11 16 12 13 9 9 12 10
12 15 18 20 22 25 23 24 23 23 16 12 8 4 4 3 1 4 11 10 10 9 6 2 4 3 5 5 5 4 7 13 11 17 10 14 18 5 9 10 10 9 10 12 14
14 17 20 22 24 27 23 26 30 16 8 5 4 3 3 6 2 9 8 17 18 14 4 8 7 4 1 5 8 7 13 15 17 13 8 7 10 13 9 12 17 10 10 13 15
15 18 21 24 26 27 26 31 18 10 4 4 3 2 4 3 8 9 15 14 10 11 12 14 13 5 5 6 3 9 7 8 3 3 5 7 13 9 10 9 14 13 9 11 15
15 18 22 25 28 24 28 33 9 4 5 2 2 2 6 7 7 17 16 10 16 10 10 12 3 6 2 5 6 7 11 13 14 6 6 9 6 7 8 12 14 12 8 9 12
16 19 22 26 27 21 29 17 6 1 6 2 1 1 3 5 14 23 18 15 4 5 6 3 1 2 2 4 10 12 12 12 14 4 7 16 17 16 12 14 14 13 7 8 8
16 19 23 24 20 19 29 5 9 6 9 1 4 4 7 17 18 9 13 7 2 4 4 4 3 8 11 12 17 18 18 20 19 17 18 18 21 19 16 9 13 16 8 8 9
16 20 23 23 14 14 22 7 3 2 6 4 5 5 13 10 6 8 9 6 5 9 4 4 11 12 7 9 14 15 21 23 20 16 12 15 21 16 13 12 11 16 16 8 6
16 20 24 21 6 11 19 9 2 0 1 6 4 4 6 6 4 8 7 5 4 4 7 6 12 15 12 10 16 16 16 19 20 18 16 15 21 17 16 18 18 19 19 8 10
17 21 23 18 1 8 4 13 2 2 4 5 5 2 7 5 2 11 9 4 4 5 7 5 5 13 13 14 11 13 5 6 12 9 6 4 9 8 5 12 12 18 17 12 10
16 20 20 12 7 3 10 9 4 1 4 10 7 3 9 5 6 4 19 6 4 8 3 7 14 14 7 6 9 9 9 11 15 14 9 13 6 5 8 13 17 16 17 12 10
15 19 18 8 6 12 14 1 3 6 5 8 5 8 10 5 4 8 6 7 3 5 4 14 5 2 3 16 15 17 16 16 12 6 5 10 9 4 2 3 5 6 9 11 10
15 19 12 9 8 18 7 2 5 7 6 10 6 9 9 6 7 8 6 7 6 7 14 11 6 2 4 9 3 7 5 4 4 1 5 3 8 10 13 14 12 15 14 9 8
15 14 8 7 18 13 1 6 9 3 5 4 6 11 5 9 4 10 7 6 5 4 8 4 8 7 4 4 7 12 3 3 7 2 3 5 4 1 19 25 25 22 17 9 8
16 8 4 10 16 9 5 6 7 6 3 6 10 5 6 4 1 8 5 3 3 6 4 4 5 4 8 7 5 10 9 13 7 15 5 3 2 4 29 28 22 20 11 8 9
12 7 3 16 12 3 5 2 3 3 3 3 1 3 3 6 8 6 5 2 5 7 7 3 7 4 11 4 3 11 12 6 3 5 5 2 6 10 30 32 34 5 6 7 8
5 3 3 16 5 5 3 6 5 4 3 3 3 3 4 5 2 3 5 6 6 8 10 4 3 7 5 5 13 9 10 5 4 3 3 6 5 15 25 27 24 13 8 5 7
2 3 8 11 4 1 2 5 4 3 2 2 3 3 3 3 4 3 4 3 9 9 8 2 3 4 3 6 6 9 14 5 1 4 4 3 4 23 26 25 19 15 16 19 21
2 2 5 5 3 3 4 3 3 2 3 2 2 3 1 2 4 4 4 4 4 9 4 8 3 5 7 1 10 7 21 17 5 3 11 6 7 19 24 26 25 19 21 23 22
3 2 4 4 0 5 3 4 5 2 3 3 3 2 4 4 3 5 7 6 11 3 10 6 2 3 2 3 8 12 22 21 13 4 7 8 13 23 28 26 23 19 24 24 23
3 2 3 2 3 2 4 1 3 4 3 2 1 2 3 3 4 3 4 9 4 4 6 3 3 3 4 8 1 17 14 19 18 15 6 10 13 20 22 20 18 17 22 25 25
3 4 1 1 1 2 1 3 2 4 2 4 3 3 5 4 6 6 7 3 4 7 6 3 3 4 4 1 0 12 21 17 16 17 7 11 14 18 17 16 19 23 23 24 23
4 3 4 2 1 3 3 3 4 0 3 5 3 2 2 6 8 10 10 12 12 7 4 4 3 3 5 4 4 4 19 12 10 16 8 10 9 14 16 20 24 21 21 20 20
Wind_Direction
23 25 20 5 357 359 353 345 342 342 339 337 338 338 340 340 340 32 58 79 344 332 338 341 358 355 350 21 251 123 265 266 274 270 285 338 342 305 310 255 342 314 36 285 350
18 20 14 2 354 353 347 338 337 336 333 333 335 336 338 340 337 343 108 328 326 335 341 352 335 343 348 305 288 143 193 246 213 315 306 301 294 303 303 303 293 284 315 342 357
13 11 9 359 350 346 341 334 332 333 331 333 330 333 335 339 -0 267 353 341 339 324 324 316 312 324 292 305 248 201 211 211 273 283 304 293 305 288 288 288 266 298 306 327 351
6 5 3 354 348 342 338 332 331 329 330 331 329 330 335 26 85 297 343 336 330 323 318 336 346 350 277 259 290 288 253 251 270 259 307 291 266 280 256 261 271 291 287 277 313
2 360 356 349 345 342 337 336 332 326 326 330 337 339 7 30 260 331 313 317 304 298 296 349 329 324 258 291 305 255 273 272 256 289 278 273 261 254 267 272 268 270 287 292 286
357 355 352 346 345 342 338 339 332 324 321 327 338 348 60 60 292 286 305 307 315 282 258 211 239 243 259 244 227 264 284 286 293 287 283 270 268 247 265 277 274 260 267 276 280
352 354 350 345 343 340 338 339 331 325 321 334 354 55 81 217 283 314 308 311 308 292 269 274 258 176 231 284 257 274 290 292 281 277 251 237 264 239 238 262 268 241 241 257 267
353 353 348 344 342 338 338 337 341 340 53 16 54 73 245 276 315 309 316 323 327 315 289 279 261 209 194 250 296 284 271 281 58 330 252 168 265 278 255 253 273 272 249 253 265
351 350 346 344 340 341 341 334 345 19 6 12 70 72 288 320 323 321 325 302 313 311 307 289 165 206 197 250 274 198 267 263 289 232 240 194 255 248 282 284 276 272 252 253 263
348 348 346 344 342 345 345 332 355 55 25 93 34 26 309 313 316 312 325 317 305 330 344 33 229 248 231 195 267 277 262 262 264 252 274 287 273 271 269 268 269 274 245 261 269
346 346 345 344 344 353 355 11 14 355 35 171 281 259 286 310 304 304 335 335 2 65 320 292 271 254 268 251 263 280 276 268 270 279 277 270 269 271 269 249 261 267 238 234 251
343 344 344 344 342 359 29 67 105 243 319 287 249 265 274 280 300 320 355 358 23 311 307 310 277 279 270 291 283 272 275 271 277 268 258 260 261 264 256 246 237 258 268 221 237
342 344 344 346 352 7 56 54 358 298 267 304 246 256 290 307 310 307 5 331 289 296 294 267 266 299 303 286 291 275 267 277 276 294 272 273 274 263 249 245 243 247 250 219 217
341 345 346 350 346 2 71 358 98 129 65 298 330 350 354 295 299 326 11 300 327 297 298 268 274 320 316 302 296 287 255 285 293 289 279 152 288 244 241 233 228 238 240 226 199
340 344 346 0 335 45 323 338 148 182 35 309 317 325 327 53 291 325 355 1 299 293 53 268 306 332 324 286 307 264 301 283 277 276 283 235 264 265 228 245 241 226 231 226 194
337 340 341 344 342 342 335 73 134 38 305 335 341 343 355 351 326 325 355 358 291 310 283 292 287 212 266 298 287 278 292 279 260 246 247 240 191 306 198 282 309 247 238 220 190
334 332 330 337 330 334 335 86 33 94 357 312 330 344 331 323 326 14 344 22 25 355 348 329 314 9 328 320 296 325 293 319 337 349 229 352 182 260 330 356 335 319 294 230 192
329 329 325 326 332 338 314 49 58 241 248 340 332 316 349 356 353 339 346 1 44 15 311 340 328 11 331 337 296 306 340 350 298 268 273 105 244 234 10 342 326 312 285 253 178
328 323 310 329 336 336 66 49 199 210 264 328 318 21 324 338 285 351 341 291 51 29 8 309 274 284 298 314 327 332 324 295 245 256 249 210 349 187 346 328 322 280 245 192 175
331 332 300 338 337 5 68 226 206 227 321 57 53 97 310 311 356 9 321 291 349 44 339 285 293 295 322 15 319 341 345 329 337 337 318 327 69 354 344 330 327 35 159 154 158
334 28 341 343 354 47 107 227 261 241 239 143 217 299 252 299 293 303 282 300 20 340 328 278 233 303 5 9 357 2 355 314 291 255 296 339 94 7 340 330 325 31 40 87 81
72 12 345 347 43 22 110 192 236 279 282 292 180 223 208 315 295 281 284 264 6 338 317 332 285 291 264 282 338 36 358 319 268 340 322 273 73 5 345 338 360 49 72 73 73
99 249 351 2 87 332 315 292 268 261 243 261 277 185 129 251 319 246 280 263 342 328 323 358 335 326 350 331 11 13 4 358 314 335 23 21 338 345 348 359 1 40 61 63 63
84 14 336 46 12 123 76 278 304 268 257 240 275 28 13 343 246 286 296 300 337 356 330 353 301 256 264 125 28 7 13 12 17 44 331 22 353 355 355 359 356 25 54 62 62
35 229 195 300 342 91 96 263 310 331 229 231 356 185 125 315 316 276 283 307 342 25 339 27 295 324 310 151 308 34 13 15 23 8 37 322 25 8 359 350 357 26 49 57 56
130 139 353 139 239 86 101 247 280 299 235 283 156 211 172 204 196 299 344 335 286 329 334 339 289 17 306 40 252 26 21 15 19 8 353 1 38 359 0 7 23 31 37 48 52
133 121 110 316 81 82 215 258 262 16 235 247 250 306 179 233 237 244 257 261 269 305 306 322 311 21 303 302 280 357 15 14 23 28 351 17 326 335 10 21 24 20 32 40 44